Home > Weather > Gliwice > Past weeks

Flag for Poland Past Weather in Gliwice, Poland — Yesterday and Last 2 Weeks

Now
63 °F

Clear.


Feels Like: 63 °F
Forecast: 62 / 72 °F
Wind: 1 mph from North

Location: Katowice Airport

Current Time: Jul 27, 2016 at 3:58:08 AM

Latest Report: Jul 27, 2016 at 3:00 AM


Visibility: 4 mi

Pressure: 30.07 "Hg

Humidity: 100%

Dew Point: 63 °F

Location of GliwiceLocation

Past Weather in Gliwice — Graph

°F

Gliwice Temperature Yesterday

Maximum temperature yesterday: 81 °F (at 3:00 PM)
Minimum temperature yesterday: 64 °F (at 12:00 AM)
Average temperature yesterday: 70 °F

High & Low Weather Summary for the Past Weeks

 TemperatureHumidityPressure
High81 °F (Jul 24, 1:30 PM)100% (Jul 12, 9:30 AM)30.21 "Hg (Jul 12, 9:30 AM)
Low46 °F (Jul 21, 4:00 AM)36% (Jul 22, 6:30 PM)29.59 "Hg (Jul 14, 10:00 AM)
Average64 °F80%30.02 "Hg
* Reported Jul 12 2:00 AM — Jul 27 2:30 AM, Gliwice, Weather by CustomWeather, © 2016

Note: Actual official high and low records may vary slightly from our data, if they occured in-between our weather recording intervals... More about our weather records

Advertising

Gliwice Weather History for the Previous 24 Hours

Scroll right to see more
 ConditionsComfort  
Time TempWeatherWind HumidityBarometerVisibility
2:30 AM
Wed, Jul 27
64 °FClear.2 mph94%30.07 "Hg4 mi
2:00 AM64 °FClear.1 mph94%30.07 "Hg10 mi
1:30 AM64 °FClear.1 mph100%30.04 "Hg10 mi
1:00 AM64 °FClear.5 mph94%30.07 "Hg10 mi
12:30 AM66 °FClear.3 mph94%30.07 "Hg10 mi
12:00 AM66 °FSprinkles. Passing clouds.7 mph94%30.07 "HgN/A
11:30 PM
Tue, Jul 26
66 °FPassing clouds.2 mph94%30.07 "HgN/A
11:00 PM68 °FThundershowers. Passing clouds.8 mph83%30.07 "HgN/A
10:30 PM66 °FThundershowers. Passing clouds.7 mph88%30.07 "HgN/A
10:00 PM66 °FThundershowers. Passing clouds.6 mph88%30.07 "HgN/A
9:30 PM68 °FThunderstorms. Scattered clouds.10 mph83%30.07 "HgN/A
9:00 PM70 °FSunny.12 mph83%30.07 "Hg10 mi
8:30 PM70 °FPassing clouds.3 mph83%30.04 "HgN/A
8:00 PM70 °FSunny.2 mph88%30.04 "Hg10 mi
7:30 PM70 °FPassing clouds.5 mph88%30.04 "HgN/A
7:00 PM68 °FSprinkles. Scattered clouds.6 mph88%30.04 "HgN/A
6:30 PM66 °FSprinkles. Scattered clouds.5 mph88%30.04 "HgN/A
6:00 PM68 °FThunderstorms. Scattered clouds.9 mph78%30.04 "HgN/A
5:30 PM72 °FThunderstorms. Partly sunny.12 mph78%30.04 "Hg4 mi
5:00 PM72 °FThunderstorms. Partly sunny.17 mph73%30.04 "HgN/A
4:30 PM81 °FThundershowers. Scattered clouds.16 mph54%30.04 "HgN/A
4:00 PM81 °FScattered clouds.7 mph62%30.01 "HgN/A
3:30 PM81 °FScattered clouds.8 mph58%30.01 "HgN/A
3:00 PM81 °FPassing clouds.9 mph62%30.01 "HgN/A
2:30 PM79 °FPassing clouds.10 mph65%30.04 "HgN/A
2:00 PM79 °FPassing clouds.9 mph70%30.04 "HgN/A
1:30 PM77 °FPassing clouds.9 mph69%30.07 "HgN/A
1:00 PM75 °FPassing clouds.7 mph74%30.07 "HgN/A
12:30 PM75 °FPassing clouds.5 mph74%30.07 "HgN/A
12:00 PM73 °FPassing clouds.5 mph78%30.07 "HgN/A
11:30 AM72 °FPassing clouds.5 mph83%30.07 "HgN/A
11:00 AM72 °FPassing clouds.3 mph78%30.07 "HgN/A
10:30 AM70 °FPassing clouds.5 mph83%30.07 "HgN/A
10:00 AM70 °FSunny.6 mph83%30.07 "Hg10 mi
9:30 AM70 °FPassing clouds.5 mph83%30.07 "HgN/A
9:00 AM70 °FPassing clouds.5 mph83%30.07 "HgN/A
8:30 AM68 °FPassing clouds.3 mph88%30.07 "HgN/A
8:00 AM68 °FPassing clouds.3 mph88%30.04 "HgN/A
7:30 AM68 °FPassing clouds.3 mph88%30.04 "HgN/A
7:00 AM66 °FSunny.2 mph94%30.04 "Hg10 mi
6:30 AM66 °FSunny.5 mph88%30.04 "Hg10 mi
6:00 AM66 °FPassing clouds.3 mph88%30.04 "HgN/A
5:30 AM66 °FSprinkles. Passing clouds.2 mph88%30.04 "HgN/A
5:00 AM66 °FPassing clouds.3 mph88%30.04 "HgN/A
4:30 AM66 °FClear.3 mph88%30.04 "Hg10 mi
4:00 AM64 °FClear.3 mph100%30.04 "Hg10 mi
3:30 AM64 °FClear.3 mph100%30.04 "Hg6 mi
3:00 AM64 °FClear.3 mph100%30.04 "Hg6 mi
Weather by CustomWeather, © 2016

See weather overviewHow to use our weather pages